Time,TemperatureF,DewpointF,PressureIn,WindDirection,WindDirectionDegrees,WindSpeedMPH,WindSpeedGustMPH,Humidity,HourlyPrecipIn,Conditions,Clouds,dailyrainin,SoftwareType,DateUTC
2014-01-01 00:04:00,30.2,10.4,29.32,NW,315,2.9,2.9,43,0.00,,,0.00,VWS V14.01,2014-01-01 05:04:00,
2014-01-01 00:09:00,29.7,9.9,29.32,NW,315,2.9,2.9,43,0.00,,,0.00,VWS V14.01,2014-01-01 05:09:00,
2014-01-01 00:10:00,29.7,9.9,29.32,NW,315,2.9,2.9,43,0.00,,,0.00,VWS V14.01,2014-01-01 05:10:00,
2014-01-01 00:19:00,29.3,9.6,29.32,NW,315,2.9,2.9,43,0.00,,,0.00,VWS V14.01,2014-01-01 05:19:00,
2014-01-01 00:24:00,28.8,9.1,29.32,NW,315,2.9,2.9,43,0.00,,,0.00,VWS V14.01,2014-01-01 05:24:00,
2014-01-01 00:29:00,28.6,8.9,29.32,NW,315,2.9,2.9,43,0.00,,,0.00,VWS V14.01,2014-01-01 05:29:00,
2014-01-01 00:34:00,28.2,9.1,29.32,NW,315,2.9,2.9,44,0.00,,,0.00,VWS V14.01,2014-01-01 05:34:00,
2014-01-01 00:39:00,27.9,8.8,29.32,NW,315,2.9,2.9,44,0.00,,,0.00,VWS V14.01,2014-01-01 05:39:00,
2014-01-01 00:44:00,27.7,8.6,29.32,NW,315,2.9,2.9,44,0.00,,,0.00,VWS V14.01,2014-01-01 05:44:00,
2014-01-01 00:49:00,27.3,8.8,29.32,NW,315,2.9,2.9,45,0.00,,,0.00,VWS V14.01,2014-01-01 05:49:00,
2014-01-01 00:50:00,27.3,8.8,29.32,NW,315,2.9,2.9,45,0.00,,,0.00,VWS V14.01,2014-01-01 05:50:00,
2014-01-01 00:59:00,27.0,8.5,29.32,NW,315,2.9,2.9,45,0.00,,,0.00,VWS V14.01,2014-01-01 05:59:00,
2014-01-01 01:04:00,27.0,8.5,29.32,NW,315,2.9,2.9,45,0.00,,,0.00,VWS V14.01,2014-01-01 06:04:00,
2014-01-01 01:09:00,26.6,8.6,29.32,NW,315,2.9,2.9,46,0.00,,,0.00,VWS V14.01,2014-01-01 06:09:00,
2014-01-01 01:14:00,26.4,8.5,29.32,NW,315,2.9,2.9,46,0.00,,,0.00,VWS V14.01,2014-01-01 06:14:00,
2014-01-01 01:19:00,26.1,8.1,29.32,NW,315,2.9,2.9,46,0.00,,,0.00,VWS V14.01,2014-01-01 06:19:00,
2014-01-01 01:24:00,25.9,8.0,29.32,NW,315,2.9,2.9,46,0.00,,,0.00,VWS V14.01,2014-01-01 06:24:00,
2014-01-01 01:29:00,25.7,8.3,29.32,NW,315,2.9,2.9,47,0.00,,,0.00,VWS V14.01,2014-01-01 06:29:00,
2014-01-01 01:34:00,25.5,8.1,29.32,NW,315,2.9,2.9,47,0.00,,,0.00,VWS V14.01,2014-01-01 06:34:00,
2014-01-01 01:39:00,25.3,7.9,29.32,NW,315,2.9,2.9,47,0.00,,,0.00,VWS V14.01,2014-01-01 06:39:00,
2014-01-01 01:44:00,25.2,8.2,29.32,NW,315,2.9,2.9,48,0.00,,,0.00,VWS V14.01,2014-01-01 06:44:00,
2014-01-01 01:49:00,25.0,8.1,29.32,NW,315,2.9,2.9,48,0.00,,,0.00,VWS V14.01,2014-01-01 06:49:00,
2014-01-01 01:54:00,25.0,8.1,29.32,NW,315,2.9,2.9,48,0.00,,,0.00,VWS V14.01,2014-01-01 06:54:00,
2014-01-01 01:59:00,24.6,8.2,29.32,NW,315,2.9,2.9,49,0.00,,,0.00,VWS V14.01,2014-01-01 06:59:00,
2014-01-01 02:00:00,24.6,8.2,29.32,NW,315,2.9,2.9,49,0.00,,,0.00,VWS V14.01,2014-01-01 07:00:00,
2014-01-01 02:09:00,24.4,8.0,29.32,NW,315,2.9,2.9,49,0.00,,,0.00,VWS V14.01,2014-01-01 07:09:00,
2014-01-01 02:14:00,24.4,8.0,29.32,NW,315,2.9,2.9,49,0.00,,,0.00,VWS V14.01,2014-01-01 07:14:00,
2014-01-01 02:19:00,24.4,8.0,29.32,NW,315,2.9,2.9,49,0.00,,,0.00,VWS V14.01,2014-01-01 07:19:00,
2014-01-01 02:24:00,24.3,8.3,29.32,NW,315,2.9,2.9,50,0.00,,,0.00,VWS V14.01,2014-01-01 07:24:00,
2014-01-01 02:29:00,24.3,8.3,29.32,NW,315,2.9,2.9,50,0.00,,,0.00,VWS V14.01,2014-01-01 07:29:00,
2014-01-01 02:34:00,24.3,8.8,29.32,NW,315,2.9,2.9,51,0.00,,,0.00,VWS V14.01,2014-01-01 07:34:00,
2014-01-01 02:39:00,24.3,8.8,29.32,NW,315,2.9,2.9,51,0.00,,,0.00,VWS V14.01,2014-01-01 07:39:00,
2014-01-01 02:44:00,24.3,8.8,29.32,NW,315,2.9,2.9,51,0.00,,,0.00,VWS V14.01,2014-01-01 07:44:00,
2014-01-01 02:49:00,24.3,9.2,29.32,NW,315,2.9,2.9,52,0.00,,,0.00,VWS V14.01,2014-01-01 07:49:00,
2014-01-01 02:54:00,24.3,9.2,29.32,NW,315,2.9,2.9,52,0.00,,,0.00,VWS V14.01,2014-01-01 07:54:00,
2014-01-01 02:59:00,24.4,9.4,29.32,NW,315,2.9,2.9,52,0.00,,,0.00,VWS V14.01,2014-01-01 07:59:00,
2014-01-01 03:04:00,24.4,9.4,29.32,NW,315,2.9,2.9,52,0.00,,,0.00,VWS V14.01,2014-01-01 08:04:00,
2014-01-01 03:09:00,24.4,9.4,29.32,NW,315,2.9,2.9,52,0.00,,,0.00,VWS V14.01,2014-01-01 08:09:00,
2014-01-01 03:10:00,24.4,9.4,29.32,NW,315,2.9,2.9,52,0.00,,,0.00,VWS V14.01,2014-01-01 08:10:00,
2014-01-01 03:19:00,24.4,9.4,29.32,NW,315,2.9,2.9,52,0.00,,,0.00,VWS V14.01,2014-01-01 08:19:00,
2014-01-01 03:24:00,24.4,9.4,29.32,NW,315,2.9,2.9,52,0.00,,,0.00,VWS V14.01,2014-01-01 08:24:00,
2014-01-01 03:29:00,24.3,9.2,29.32,NW,315,2.9,2.9,52,0.00,,,0.00,VWS V14.01,2014-01-01 08:29:00,
2014-01-01 03:30:00,24.3,9.2,29.32,NW,315,2.9,2.9,52,0.00,,,0.00,VWS V14.01,2014-01-01 08:30:00,
2014-01-01 03:40:00,24.1,9.0,29.32,NW,315,2.9,2.9,52,0.00,,,0.00,VWS V14.01,2014-01-01 08:40:00,
2014-01-01 03:45:00,24.1,9.0,29.32,NW,315,2.9,2.9,52,0.00,,,0.00,VWS V14.01,2014-01-01 08:45:00,
2014-01-01 03:50:00,24.1,9.0,29.32,NW,315,2.9,2.9,52,0.00,,,0.00,VWS V14.01,2014-01-01 08:50:00,
2014-01-01 03:55:00,24.1,9.0,29.32,NW,315,2.9,2.9,52,0.00,,,0.00,VWS V14.01,2014-01-01 08:55:00,
2014-01-01 04:00:00,23.5,8.5,29.32,NW,315,2.9,2.9,52,0.00,,,0.00,VWS V14.01,2014-01-01 09:00:00,
2014-01-01 04:05:00,23.5,8.5,29.32,NW,315,2.9,2.9,52,0.00,,,0.00,VWS V14.01,2014-01-01 09:05:00,
2014-01-01 04:10:00,23.5,8.5,29.32,NW,315,2.9,2.9,52,0.00,,,0.00,VWS V14.01,2014-01-01 09:10:00,
2014-01-01 04:15:00,23.5,8.5,29.32,NW,315,2.9,2.9,52,0.00,,,0.00,VWS V14.01,2014-01-01 09:15:00,
2014-01-01 04:20:00,23.4,8.4,29.32,NW,315,2.9,2.9,52,0.00,,,0.00,VWS V14.01,2014-01-01 09:20:00,
2014-01-01 04:25:00,23.2,8.2,29.32,NW,315,2.9,2.9,52,0.00,,,0.00,VWS V14.01,2014-01-01 09:25:00,
2014-01-01 04:30:00,23.2,8.2,29.32,NW,315,2.9,2.9,52,0.00,,,0.00,VWS V14.01,2014-01-01 09:30:00,
2014-01-01 04:35:00,23.2,8.2,29.29,NW,315,2.9,2.9,52,0.00,,,0.00,VWS V14.01,2014-01-01 09:35:00,
2014-01-01 04:40:00,23.2,8.6,29.29,NW,315,2.9,2.9,53,0.00,,,0.00,VWS V14.01,2014-01-01 09:40:00,
2014-01-01 04:45:00,23.4,8.8,29.29,NW,315,2.9,2.9,53,0.00,,,0.00,VWS V14.01,2014-01-01 09:45:00,
2014-01-01 04:50:00,23.4,8.8,29.29,NW,315,2.9,2.9,53,0.00,,,0.00,VWS V14.01,2014-01-01 09:50:00,
2014-01-01 04:55:00,23.2,8.6,29.29,NW,315,2.9,2.9,53,0.00,,,0.00,VWS V14.01,2014-01-01 09:55:00,
2014-01-01 05:00:00,23.2,8.6,29.29,NW,315,2.9,2.9,53,0.00,,,0.00,VWS V14.01,2014-01-01 10:00:00,
2014-01-01 05:05:00,22.8,8.3,29.29,NW,315,2.9,2.9,53,0.00,,,0.00,VWS V14.01,2014-01-01 10:05:00,
2014-01-01 05:10:00,22.8,8.3,29.29,NW,315,2.9,2.9,53,0.00,,,0.00,VWS V14.01,2014-01-01 10:10:00,
2014-01-01 05:15:00,22.8,8.3,29.29,NW,315,2.9,2.9,53,0.00,,,0.00,VWS V14.01,2014-01-01 10:15:00,
2014-01-01 05:20:00,22.6,8.1,29.29,NW,315,2.9,2.9,53,0.00,,,0.00,VWS V14.01,2014-01-01 10:20:00,
2014-01-01 05:25:00,22.6,8.1,29.29,NW,315,2.9,2.9,53,0.00,,,0.00,VWS V14.01,2014-01-01 10:25:00,
2014-01-01 05:30:00,22.5,8.3,29.29,NW,315,2.9,2.9,54,0.00,,,0.00,VWS V14.01,2014-01-01 10:30:00,
2014-01-01 05:35:00,22.6,8.5,29.29,NW,315,2.9,2.9,54,0.00,,,0.00,VWS V14.01,2014-01-01 10:35:00,
2014-01-01 05:40:00,22.6,8.5,29.29,NW,315,2.9,2.9,54,0.00,,,0.00,VWS V14.01,2014-01-01 10:40:00,
2014-01-01 05:45:00,22.5,8.3,29.29,NW,315,2.9,2.9,54,0.00,,,0.00,VWS V14.01,2014-01-01 10:45:00,
2014-01-01 05:50:00,22.5,8.3,29.29,NW,315,2.9,2.9,54,0.00,,,0.00,VWS V14.01,2014-01-01 10:50:00,
2014-01-01 05:55:00,22.5,8.3,29.29,NW,315,2.9,2.9,54,0.00,,,0.00,VWS V14.01,2014-01-01 10:55:00,
2014-01-01 06:00:00,22.6,8.5,29.29,NW,315,2.9,2.9,54,0.00,,,0.00,VWS V14.01,2014-01-01 11:00:00,
2014-01-01 06:05:00,22.6,8.5,29.29,NW,315,2.9,2.9,54,0.00,,,0.00,VWS V14.01,2014-01-01 11:05:00,
2014-01-01 06:10:00,22.8,9.1,29.29,NW,315,2.9,2.9,55,0.00,,,0.00,VWS V14.01,2014-01-01 11:10:00,
2014-01-01 06:15:00,22.8,9.1,29.29,NW,315,2.9,2.9,55,0.00,,,0.00,VWS V14.01,2014-01-01 11:15:00,
2014-01-01 06:20:00,22.8,9.1,29.29,NW,315,2.9,2.9,55,0.00,,,0.00,VWS V14.01,2014-01-01 11:20:00,
2014-01-01 06:25:00,23.0,9.2,29.29,NW,315,2.9,2.9,55,0.00,,,0.00,VWS V14.01,2014-01-01 11:25:00,
2014-01-01 06:30:00,23.0,9.2,29.29,NW,315,2.9,2.9,55,0.00,,,0.00,VWS V14.01,2014-01-01 11:30:00,
2014-01-01 06:35:00,23.2,9.4,29.29,NW,315,2.9,2.9,55,0.00,,,0.00,VWS V14.01,2014-01-01 11:35:00,
2014-01-01 06:40:00,23.4,9.6,29.29,NW,315,2.9,2.9,55,0.00,,,0.00,VWS V14.01,2014-01-01 11:40:00,
2014-01-01 06:45:00,23.4,9.6,29.29,NW,315,2.9,2.9,55,0.00,,,0.00,VWS V14.01,2014-01-01 11:45:00,
2014-01-01 06:50:00,23.4,9.6,29.32,NW,315,2.9,2.9,55,0.00,,,0.00,VWS V14.01,2014-01-01 11:50:00,
2014-01-01 06:55:00,23.2,9.4,29.32,NW,315,2.9,2.9,55,0.00,,,0.00,VWS V14.01,2014-01-01 11:55:00,
2014-01-01 07:00:00,23.2,9.8,29.32,NW,315,2.9,2.9,56,0.00,,,0.00,VWS V14.01,2014-01-01 12:00:00,
2014-01-01 07:05:00,23.4,10.0,29.32,NW,315,2.9,2.9,56,0.00,,,0.00,VWS V14.01,2014-01-01 12:05:00,
2014-01-01 07:10:00,23.2,9.8,29.32,NW,315,2.9,2.9,56,0.00,,,0.00,VWS V14.01,2014-01-01 12:10:00,
2014-01-01 07:15:00,23.2,9.8,29.32,NW,315,2.9,2.9,56,0.00,,,0.00,VWS V14.01,2014-01-01 12:15:00,
2014-01-01 07:20:00,23.2,9.8,29.29,NW,315,2.9,2.9,56,0.00,,,0.00,VWS V14.01,2014-01-01 12:20:00,
2014-01-01 07:25:00,23.4,10.0,29.29,NW,315,2.9,2.9,56,0.00,,,0.00,VWS V14.01,2014-01-01 12:25:00,
2014-01-01 07:30:00,23.2,9.8,29.29,NW,315,2.9,2.9,56,0.00,,,0.00,VWS V14.01,2014-01-01 12:30:00,
2014-01-01 07:35:00,23.2,9.8,29.29,NW,315,2.9,2.9,56,0.00,,,0.00,VWS V14.01,2014-01-01 12:35:00,
2014-01-01 07:40:00,23.4,10.0,29.29,NW,315,2.9,2.9,56,0.00,,,0.00,VWS V14.01,2014-01-01 12:40:00,
2014-01-01 07:45:00,23.5,10.2,29.29,NW,315,2.9,2.9,56,0.00,,,0.00,VWS V14.01,2014-01-01 12:45:00,
2014-01-01 07:50:00,23.5,10.2,29.29,NW,315,2.9,2.9,56,0.00,,,0.00,VWS V14.01,2014-01-01 12:50:00,
2014-01-01 07:55:00,23.9,10.5,29.32,NW,315,2.9,2.9,56,0.00,,,0.00,VWS V14.01,2014-01-01 12:55:00,
2014-01-01 08:00:00,24.1,10.7,29.32,NW,315,2.9,2.9,56,0.00,,,0.00,VWS V14.01,2014-01-01 13:00:00,
2014-01-01 08:05:00,24.3,10.8,29.29,NW,315,2.9,2.9,56,0.00,,,0.00,VWS V14.01,2014-01-01 13:05:00,
2014-01-01 08:10:00,24.4,11.4,29.29,NW,315,2.9,2.9,57,0.00,,,0.00,VWS V14.01,2014-01-01 13:10:00,
2014-01-01 08:15:00,24.8,11.7,29.29,NW,315,2.9,2.9,57,0.00,,,0.00,VWS V14.01,2014-01-01 13:15:00,
2014-01-01 08:20:00,25.2,11.7,29.29,NW,315,2.9,2.9,56,0.00,,,0.00,VWS V14.01,2014-01-01 13:20:00,
2014-01-01 08:25:00,25.7,12.2,29.29,NW,315,2.9,2.9,56,0.00,,,0.00,VWS V14.01,2014-01-01 13:25:00,
2014-01-01 08:30:00,25.9,12.4,29.29,NW,315,2.9,2.9,56,0.00,,,0.00,VWS V14.01,2014-01-01 13:30:00,
2014-01-01 08:35:00,26.2,12.7,29.29,NW,315,2.9,2.9,56,0.00,,,0.00,VWS V14.01,2014-01-01 13:35:00,
2014-01-01 08:40:00,26.4,12.9,29.29,NW,315,2.9,2.9,56,0.00,,,0.00,VWS V14.01,2014-01-01 13:40:00,
2014-01-01 08:45:00,26.4,12.9,29.29,NW,315,2.9,2.9,56,0.00,,,0.00,VWS V14.01,2014-01-01 13:45:00,
2014-01-01 08:50:00,26.6,13.0,29.32,NW,315,2.9,2.9,56,0.00,,,0.00,VWS V14.01,2014-01-01 13:50:00,
2014-01-01 08:55:00,26.8,12.8,29.32,NW,315,2.9,2.9,55,0.00,,,0.00,VWS V14.01,2014-01-01 13:55:00,
2014-01-01 09:00:00,26.8,12.8,29.32,NW,315,2.9,2.9,55,0.00,,,0.00,VWS V14.01,2014-01-01 14:00:00,
2014-01-01 09:05:00,27.0,13.0,29.32,NW,315,2.9,2.9,55,0.00,,,0.00,VWS V14.01,2014-01-01 14:05:00,
2014-01-01 09:10:00,27.3,13.3,29.32,NW,315,2.9,2.9,55,0.00,,,0.00,VWS V14.01,2014-01-01 14:10:00,
2014-01-01 09:15:00,27.5,13.5,29.32,NW,315,2.9,2.9,55,0.00,,,0.00,VWS V14.01,2014-01-01 14:15:00,
2014-01-01 09:20:00,27.9,13.8,29.29,NW,315,2.9,2.9,55,0.00,,,0.00,VWS V14.01,2014-01-01 14:20:00,
2014-01-01 09:25:00,27.9,13.8,29.29,NW,315,2.9,2.9,55,0.00,,,0.00,VWS V14.01,2014-01-01 14:25:00,
2014-01-01 09:30:00,27.9,13.8,29.29,NW,315,2.9,2.9,55,0.00,,,0.00,VWS V14.01,2014-01-01 14:30:00,
2014-01-01 09:35:00,28.4,13.9,29.29,NW,315,2.9,2.9,54,0.00,,,0.00,VWS V14.01,2014-01-01 14:35:00,
2014-01-01 09:40:00,28.9,14.4,29.29,NW,315,2.9,2.9,54,0.00,,,0.00,VWS V14.01,2014-01-01 14:40:00,
2014-01-01 09:45:00,29.7,15.1,29.29,NW,315,2.9,2.9,54,0.00,,,0.00,VWS V14.01,2014-01-01 14:45:00,
2014-01-01 09:50:00,30.2,15.6,29.29,NW,315,2.9,2.9,54,0.00,,,0.00,VWS V14.01,2014-01-01 14:50:00,
2014-01-01 09:55:00,30.9,15.8,29.29,NW,315,2.9,2.9,53,0.00,,,0.00,VWS V14.01,2014-01-01 14:55:00,
2014-01-01 10:00:00,31.1,15.5,29.29,NW,315,2.9,2.9,52,0.00,,,0.00,VWS V14.01,2014-01-01 15:00:00,
2014-01-01 10:05:00,31.6,16.0,29.29,NW,315,2.9,2.9,52,0.00,,,0.00,VWS V14.01,2014-01-01 15:05:00,
2014-01-01 10:10:00,32.0,16.4,29.29,NW,315,2.9,2.9,52,0.00,,,0.00,VWS V14.01,2014-01-01 15:10:00,
2014-01-01 10:15:00,32.5,16.9,29.29,NW,315,2.9,2.9,52,0.00,,,0.00,VWS V14.01,2014-01-01 15:15:00,
2014-01-01 10:20:00,32.7,17.0,29.29,NW,315,2.9,2.9,52,0.00,,,0.00,VWS V14.01,2014-01-01 15:20:00,
2014-01-01 10:25:00,33.1,17.4,29.29,NW,315,2.9,2.9,52,0.00,,,0.00,VWS V14.01,2014-01-01 15:25:00,
2014-01-01 10:30:00,33.3,17.1,29.29,NW,315,2.9,2.9,51,0.00,,,0.00,VWS V14.01,2014-01-01 15:30:00,
2014-01-01 10:35:00,33.6,17.4,29.29,NW,315,2.9,2.9,51,0.00,,,0.00,VWS V14.01,2014-01-01 15:35:00,
2014-01-01 10:40:00,34.0,17.3,29.29,NW,315,2.9,2.9,50,0.00,,,0.00,VWS V14.01,2014-01-01 15:40:00,
2014-01-01 10:45:00,34.2,17.5,29.29,NW,315,2.9,2.9,50,0.00,,,0.00,VWS V14.01,2014-01-01 15:45:00,
2014-01-01 10:50:00,34.5,17.8,29.29,NW,315,2.9,2.9,50,0.00,,,0.00,VWS V14.01,2014-01-01 15:50:00,
2014-01-01 10:55:00,34.9,18.1,29.29,NW,315,2.9,2.9,50,0.00,,,0.00,VWS V14.01,2014-01-01 15:55:00,
2014-01-01 11:00:00,35.1,18.3,29.29,NW,315,2.9,2.9,50,0.00,,,0.00,VWS V14.01,2014-01-01 16:00:00,
2014-01-01 11:05:00,35.8,18.5,29.29,NW,315,2.9,2.9,49,0.00,,,0.00,VWS V14.01,2014-01-01 16:05:00,
2014-01-01 11:10:00,36.3,19.0,29.29,NW,315,2.9,2.9,49,0.00,,,0.00,VWS V14.01,2014-01-01 16:10:00,
2014-01-01 11:15:00,36.5,18.7,29.29,NW,315,2.9,2.9,48,0.00,,,0.00,VWS V14.01,2014-01-01 16:15:00,
2014-01-01 11:20:00,36.9,19.0,29.26,NW,315,2.9,2.9,48,0.00,,,0.00,VWS V14.01,2014-01-01 16:20:00,
2014-01-01 11:25:00,37.4,19.0,29.26,NW,315,2.9,2.9,47,0.00,,,0.00,VWS V14.01,2014-01-01 16:25:00,
2014-01-01 11:30:00,38.1,19.7,29.26,NW,315,2.9,2.9,47,0.00,,,0.00,VWS V14.01,2014-01-01 16:30:00,
2014-01-01 11:35:00,38.8,20.4,29.26,SSE,158,2.7,2.7,47,0.00,,,0.00,VWS V14.01,2014-01-01 16:35:00,
2014-01-01 11:40:00,39.7,20.7,29.26,SSE,158,2.7,2.7,46,0.00,,,0.00,VWS V14.01,2014-01-01 16:40:00,
2014-01-01 11:45:00,40.3,21.2,29.26,SSE,158,2.7,2.7,46,0.00,,,0.00,VWS V14.01,2014-01-01 16:45:00,
2014-01-01 11:51:00,41.0,20.8,29.23,SSE,158,2.7,2.7,44,0.00,,,0.00,VWS V14.01,2014-01-01 16:51:00,
2014-01-01 11:56:00,42.1,21.2,29.23,SSE,158,2.7,2.7,43,0.00,,,0.00,VWS V14.01,2014-01-01 16:56:00,
2014-01-01 12:01:00,42.3,20.8,29.23,SSE,158,2.7,2.7,42,0.00,,,0.00,VWS V14.01,2014-01-01 17:01:00,
2014-01-01 12:06:00,42.4,20.4,29.23,SSE,158,2.7,2.7,41,0.00,,,0.00,VWS V14.01,2014-01-01 17:06:00,
2014-01-01 12:11:00,41.9,19.9,29.23,SSE,158,2.7,2.7,41,0.00,,,0.00,VWS V14.01,2014-01-01 17:11:00,
2014-01-01 12:16:00,41.7,19.8,29.23,SSE,158,2.7,2.7,41,0.00,,,0.00,VWS V14.01,2014-01-01 17:16:00,
2014-01-01 12:21:00,41.7,19.2,29.23,SSE,158,2.7,2.7,40,0.00,,,0.00,VWS V14.01,2014-01-01 17:21:00,
2014-01-01 12:26:00,41.7,19.2,29.23,SSE,158,2.7,2.7,40,0.00,,,0.00,VWS V14.01,2014-01-01 17:26:00,
2014-01-01 12:31:00,41.7,19.2,29.23,SSE,158,2.7,2.7,40,0.00,,,0.00,VWS V14.01,2014-01-01 17:31:00,
2014-01-01 12:36:00,41.9,19.4,29.23,SSE,158,2.7,2.7,40,0.00,,,0.00,VWS V14.01,2014-01-01 17:36:00,
2014-01-01 12:41:00,42.1,19.5,29.23,SSE,158,2.7,2.7,40,0.00,,,0.00,VWS V14.01,2014-01-01 17:41:00,
2014-01-01 12:46:00,42.1,19.5,29.23,SSE,158,2.7,2.7,40,0.00,,,0.00,VWS V14.01,2014-01-01 17:46:00,
2014-01-01 12:51:00,42.3,19.7,29.20,SSE,158,2.7,2.7,40,0.00,,,0.00,VWS V14.01,2014-01-01 17:51:00,
2014-01-01 12:56:00,42.1,18.9,29.20,SSE,158,2.7,2.7,39,0.00,,,0.00,VWS V14.01,2014-01-01 17:56:00,
2014-01-01 13:01:00,42.3,19.7,29.20,SSE,158,2.7,2.7,40,0.00,,,0.00,VWS V14.01,2014-01-01 18:01:00,
2014-01-01 13:06:00,42.6,20.0,29.20,SSE,158,2.7,2.7,40,0.00,,,0.00,VWS V14.01,2014-01-01 18:06:00,
2014-01-01 13:11:00,42.8,19.6,29.20,SSE,158,2.7,2.7,39,0.00,,,0.00,VWS V14.01,2014-01-01 18:11:00,
2014-01-01 13:16:00,42.8,19.6,29.20,SSE,158,2.7,2.7,39,0.00,,,0.00,VWS V14.01,2014-01-01 18:16:00,
2014-01-01 13:21:00,43.0,19.7,29.20,SSE,158,2.7,2.7,39,0.00,,,0.00,VWS V14.01,2014-01-01 18:21:00,
2014-01-01 13:26:00,43.0,19.7,29.20,SSE,158,2.7,2.7,39,0.00,,,0.00,VWS V14.01,2014-01-01 18:26:00,
2014-01-01 13:31:00,43.0,19.7,29.20,SSE,158,2.7,2.7,39,0.00,,,0.00,VWS V14.01,2014-01-01 18:31:00,
2014-01-01 13:36:00,43.0,19.7,29.20,SSE,158,2.7,2.7,39,0.00,,,0.00,VWS V14.01,2014-01-01 18:36:00,
2014-01-01 13:41:00,43.3,19.5,29.20,SSE,158,2.7,2.7,38,0.00,,,0.00,VWS V14.01,2014-01-01 18:41:00,
2014-01-01 13:46:00,43.7,19.8,29.20,SSE,158,2.7,2.7,38,0.00,,,0.00,VWS V14.01,2014-01-01 18:46:00,
2014-01-01 13:51:00,44.1,20.1,29.20,SSE,158,2.7,2.7,38,0.00,,,0.00,VWS V14.01,2014-01-01 18:51:00,
2014-01-01 13:56:00,44.1,20.1,29.20,SSE,158,2.7,2.7,38,0.00,,,0.00,VWS V14.01,2014-01-01 18:56:00,
2014-01-01 14:01:00,44.1,20.1,29.20,SSE,158,2.7,2.7,38,0.00,,,0.00,VWS V14.01,2014-01-01 19:01:00,
2014-01-01 14:06:00,44.1,20.1,29.17,SSE,158,2.7,2.7,38,0.00,,,0.00,VWS V14.01,2014-01-01 19:06:00,
2014-01-01 14:11:00,44.6,20.0,29.17,SSE,158,2.7,2.7,37,0.00,,,0.00,VWS V14.01,2014-01-01 19:11:00,
2014-01-01 14:16:00,44.8,20.1,29.17,SSE,158,2.7,2.7,37,0.00,,,0.00,VWS V14.01,2014-01-01 19:16:00,
2014-01-01 14:21:00,44.6,20.0,29.20,SSE,158,2.7,2.7,37,0.00,,,0.00,VWS V14.01,2014-01-01 19:21:00,
2014-01-01 14:26:00,44.6,20.0,29.20,SSE,158,2.7,2.7,37,0.00,,,0.00,VWS V14.01,2014-01-01 19:26:00,
2014-01-01 14:31:00,44.6,20.0,29.20,SSE,158,2.7,2.7,37,0.00,,,0.00,VWS V14.01,2014-01-01 19:31:00,
2014-01-01 14:36:00,44.6,20.0,29.17,SSE,158,2.7,2.7,37,0.00,,,0.00,VWS V14.01,2014-01-01 19:36:00,
2014-01-01 14:41:00,44.6,19.3,29.17,SSE,158,2.7,2.7,36,0.00,,,0.00,VWS V14.01,2014-01-01 19:41:00,
2014-01-01 14:46:00,44.6,19.3,29.17,SSE,158,2.7,2.7,36,0.00,,,0.00,VWS V14.01,2014-01-01 19:46:00,
2014-01-01 14:51:00,44.4,19.8,29.17,SSE,158,2.7,2.7,37,0.00,,,0.00,VWS V14.01,2014-01-01 19:51:00,
2014-01-01 14:56:00,44.4,19.1,29.17,SSE,158,2.7,2.7,36,0.00,,,0.00,VWS V14.01,2014-01-01 19:56:00,
2014-01-01 15:01:00,44.6,19.3,29.17,SSE,158,2.7,2.7,36,0.00,,,0.00,VWS V14.01,2014-01-01 20:01:00,
2014-01-01 15:06:00,44.8,18.8,29.14,SSE,158,2.7,2.7,35,0.00,,,0.00,VWS V14.01,2014-01-01 20:06:00,
2014-01-01 15:11:00,44.8,19.5,29.14,SSE,158,2.7,2.7,36,0.00,,,0.00,VWS V14.01,2014-01-01 20:11:00,
2014-01-01 15:16:00,44.4,19.1,29.14,SSE,158,2.7,2.7,36,0.00,,,0.00,VWS V14.01,2014-01-01 20:16:00,
2014-01-01 15:21:00,44.2,19.0,29.14,SSE,158,2.7,2.7,36,0.00,,,0.00,VWS V14.01,2014-01-01 20:21:00,
2014-01-01 15:26:00,44.2,19.0,29.14,SSE,158,2.7,2.7,36,0.00,,,0.00,VWS V14.01,2014-01-01 20:26:00,
2014-01-01 15:31:00,44.2,19.0,29.14,SSE,158,2.7,2.7,36,0.00,,,0.00,VWS V14.01,2014-01-01 20:31:00,
2014-01-01 15:36:00,44.2,19.0,29.14,SSE,158,2.7,2.7,36,0.00,,,0.00,VWS V14.01,2014-01-01 20:36:00,
2014-01-01 15:41:00,44.6,18.7,29.14,SSE,158,2.7,2.7,35,0.00,,,0.00,VWS V14.01,2014-01-01 20:41:00,
2014-01-01 15:46:00,44.2,18.3,29.14,SSE,158,2.7,2.7,35,0.00,,,0.00,VWS V14.01,2014-01-01 20:46:00,
2014-01-01 15:51:00,44.1,18.8,29.14,SSE,158,2.7,2.7,36,0.00,,,0.00,VWS V14.01,2014-01-01 20:51:00,
2014-01-01 15:56:00,43.7,18.5,29.14,SSE,158,2.7,2.7,36,0.00,,,0.00,VWS V14.01,2014-01-01 20:56:00,
2014-01-01 16:01:00,43.3,18.2,29.14,SSE,158,2.7,2.7,36,0.00,,,0.00,VWS V14.01,2014-01-01 21:01:00,
2014-01-01 16:06:00,43.0,18.5,29.14,SSE,158,2.7,2.7,37,0.00,,,0.00,VWS V14.01,2014-01-01 21:06:00,
2014-01-01 16:11:00,42.8,18.4,29.14,SSE,158,2.7,2.7,37,0.00,,,0.00,VWS V14.01,2014-01-01 21:11:00,
2014-01-01 16:16:00,42.8,19.0,29.14,SSE,158,2.7,2.7,38,0.00,,,0.00,VWS V14.01,2014-01-01 21:16:00,
2014-01-01 16:21:00,42.8,19.0,29.17,SSE,158,2.7,2.7,38,0.00,,,0.00,VWS V14.01,2014-01-01 21:21:00,
2014-01-01 16:26:00,42.8,19.0,29.17,SSE,158,2.7,2.7,38,0.00,,,0.00,VWS V14.01,2014-01-01 21:26:00,
2014-01-01 16:31:00,42.6,18.8,29.17,SSE,158,2.7,2.7,38,0.00,,,0.00,VWS V14.01,2014-01-01 21:31:00,
2014-01-01 16:36:00,42.8,19.0,29.14,SSE,158,2.7,2.7,38,0.00,,,0.00,VWS V14.01,2014-01-01 21:36:00,
2014-01-01 16:41:00,43.0,19.1,29.14,SSE,158,2.7,2.7,38,0.00,,,0.00,VWS V14.01,2014-01-01 21:41:00,
2014-01-01 16:46:00,42.8,19.0,29.14,SSE,158,2.7,2.7,38,0.00,,,0.00,VWS V14.01,2014-01-01 21:46:00,
2014-01-01 16:51:00,42.4,18.6,29.17,SSE,158,2.7,2.7,38,0.00,,,0.00,VWS V14.01,2014-01-01 21:51:00,
2014-01-01 16:56:00,42.1,18.3,29.17,SSE,158,2.7,2.7,38,0.00,,,0.00,VWS V14.01,2014-01-01 21:56:00,
2014-01-01 17:01:00,41.7,18.0,29.17,SSE,158,2.7,2.7,38,0.00,,,0.00,VWS V14.01,2014-01-01 22:01:00,
2014-01-01 17:06:00,41.5,18.4,29.14,SSE,158,2.7,2.7,39,0.00,,,0.00,VWS V14.01,2014-01-01 22:06:00,
2014-01-01 17:11:00,41.4,18.3,29.14,SSE,158,2.7,2.7,39,0.00,,,0.00,VWS V14.01,2014-01-01 22:11:00,
2014-01-01 17:16:00,41.2,18.1,29.14,SSE,158,2.7,2.7,39,0.00,,,0.00,VWS V14.01,2014-01-01 22:16:00,
2014-01-01 17:21:00,40.6,17.6,29.14,SSE,158,2.7,2.7,39,0.00,,,0.00,VWS V14.01,2014-01-01 22:21:00,
2014-01-01 17:26:00,40.5,17.5,29.14,SSE,158,2.7,2.7,39,0.00,,,0.00,VWS V14.01,2014-01-01 22:26:00,
2014-01-01 17:31:00,40.1,17.1,29.14,SSE,158,2.7,2.7,39,0.00,,,0.00,VWS V14.01,2014-01-01 22:31:00,
2014-01-01 17:36:00,39.7,16.8,29.14,SSE,158,2.7,2.7,39,0.00,,,0.00,VWS V14.01,2014-01-01 22:36:00,
2014-01-01 17:41:00,39.6,17.2,29.14,SSE,158,2.7,2.7,40,0.00,,,0.00,VWS V14.01,2014-01-01 22:41:00,
2014-01-01 17:46:00,39.6,17.2,29.14,SSE,158,2.7,2.7,40,0.00,,,0.00,VWS V14.01,2014-01-01 22:46:00,
2014-01-01 17:51:00,39.4,17.1,29.14,SSE,158,2.7,2.7,40,0.00,,,0.00,VWS V14.01,2014-01-01 22:51:00,
2014-01-01 17:56:00,39.2,16.9,29.14,SSE,158,2.7,2.7,40,0.00,,,0.00,VWS V14.01,2014-01-01 22:56:00,
2014-01-01 18:01:00,39.2,16.9,29.14,SSE,158,2.7,2.7,40,0.00,,,0.00,VWS V14.01,2014-01-01 23:01:00,
2014-01-01 18:06:00,39.0,16.8,29.14,SSE,158,2.7,2.7,40,0.00,,,0.00,VWS V14.01,2014-01-01 23:06:00,
2014-01-01 18:11:00,38.8,16.6,29.14,SSE,158,2.7,2.7,40,0.00,,,0.00,VWS V14.01,2014-01-01 23:11:00,
2014-01-01 18:16:00,38.8,17.2,29.14,SSE,158,2.7,2.7,41,0.00,,,0.00,VWS V14.01,2014-01-01 23:16:00,
2014-01-01 18:21:00,38.7,17.0,29.14,SSE,158,2.7,2.7,41,0.00,,,0.00,VWS V14.01,2014-01-01 23:21:00,
2014-01-01 18:26:00,38.5,16.8,29.14,SSE,158,2.7,2.7,41,0.00,,,0.00,VWS V14.01,2014-01-01 23:26:00,
2014-01-01 18:31:00,38.5,16.8,29.14,SSE,158,2.7,2.7,41,0.00,,,0.00,VWS V14.01,2014-01-01 23:31:00,
2014-01-01 18:36:00,38.3,17.2,29.14,SSE,158,2.7,2.7,42,0.00,,,0.00,VWS V14.01,2014-01-01 23:36:00,
2014-01-01 18:41:00,38.3,16.7,29.14,SSE,158,2.7,2.7,41,0.00,,,0.00,VWS V14.01,2014-01-01 23:41:00,
2014-01-01 18:46:00,38.3,16.7,29.14,SSE,158,2.7,2.7,41,0.00,,,0.00,VWS V14.01,2014-01-01 23:46:00,
2014-01-01 18:51:00,38.1,17.1,29.14,SSE,158,2.7,2.7,42,0.00,,,0.00,VWS V14.01,2014-01-01 23:51:00,
2014-01-01 18:56:00,37.9,16.9,29.14,SSE,158,2.7,2.7,42,0.00,,,0.00,VWS V14.01,2014-01-01 23:56:00,
2014-01-01 19:01:00,37.9,16.9,29.14,SSE,158,2.7,2.7,42,0.00,,,0.00,VWS V14.01,2014-01-02 00:01:00,
2014-01-01 19:06:00,37.8,17.3,29.14,SSE,158,2.7,2.7,43,0.00,,,0.00,VWS V14.01,2014-01-02 00:06:00,
2014-01-01 19:11:00,37.8,17.3,29.14,SSE,158,2.7,2.7,43,0.00,,,0.00,VWS V14.01,2014-01-02 00:11:00,
2014-01-01 19:16:00,37.8,16.8,29.14,SSE,158,2.7,2.7,42,0.00,,,0.00,VWS V14.01,2014-01-02 00:16:00,
2014-01-01 19:21:00,37.9,17.5,29.14,SSE,158,2.7,2.7,43,0.00,,,0.00,VWS V14.01,2014-01-02 00:21:00,
2014-01-01 19:26:00,38.1,17.6,29.14,SSE,158,2.7,2.7,43,0.00,,,0.00,VWS V14.01,2014-01-02 00:26:00,
2014-01-01 19:31:00,38.1,17.6,29.14,SSE,158,2.7,2.7,43,0.00,,,0.00,VWS V14.01,2014-01-02 00:31:00,
2014-01-01 19:36:00,38.1,17.1,29.12,SSE,158,2.7,2.7,42,0.00,,,0.00,VWS V14.01,2014-01-02 00:36:00,
2014-01-01 19:41:00,38.1,17.1,29.12,SSE,158,2.7,2.7,42,0.00,,,0.00,VWS V14.01,2014-01-02 00:41:00,
2014-01-01 19:47:00,38.1,17.1,29.12,SSE,158,2.7,2.7,42,0.00,,,0.00,VWS V14.01,2014-01-02 00:47:00,
2014-01-01 19:52:00,38.1,17.1,29.12,SSE,158,2.7,2.7,42,0.00,,,0.00,VWS V14.01,2014-01-02 00:52:00,
2014-01-01 19:57:00,37.9,16.9,29.12,SSE,158,2.7,2.7,42,0.00,,,0.00,VWS V14.01,2014-01-02 00:57:00,
2014-01-01 20:02:00,37.9,16.9,29.12,SSE,158,2.7,2.7,42,0.00,,,0.00,VWS V14.01,2014-01-02 01:02:00,
2014-01-01 20:07:00,37.9,17.5,29.14,SSE,158,2.7,2.7,43,0.00,,,0.00,VWS V14.01,2014-01-02 01:07:00,
2014-01-01 20:12:00,37.9,17.5,29.14,SSE,158,2.7,2.7,43,0.00,,,0.00,VWS V14.01,2014-01-02 01:12:00,
2014-01-01 20:17:00,37.9,16.9,29.14,SSE,158,2.7,2.7,42,0.00,,,0.00,VWS V14.01,2014-01-02 01:17:00,
2014-01-01 20:22:00,37.9,17.5,29.12,SSE,158,2.7,2.7,43,0.00,,,0.00,VWS V14.01,2014-01-02 01:22:00,
2014-01-01 20:27:00,37.9,16.9,29.12,SSE,158,2.7,2.7,42,0.00,,,0.00,VWS V14.01,2014-01-02 01:27:00,
2014-01-01 20:32:00,37.9,17.5,29.12,SSE,158,2.7,2.7,43,0.00,,,0.00,VWS V14.01,2014-01-02 01:32:00,
2014-01-01 20:37:00,37.9,16.9,29.12,SSE,158,2.7,2.7,42,0.00,,,0.00,VWS V14.01,2014-01-02 01:37:00,
2014-01-01 20:42:00,37.8,16.8,29.12,SSE,158,2.7,2.7,42,0.00,,,0.00,VWS V14.01,2014-01-02 01:42:00,
2014-01-01 20:47:00,37.4,16.4,29.12,SSE,158,2.7,2.7,42,0.00,,,0.00,VWS V14.01,2014-01-02 01:47:00,
2014-01-01 20:52:00,37.2,16.8,29.12,SSE,158,2.7,2.7,43,0.00,,,0.00,VWS V14.01,2014-01-02 01:52:00,
2014-01-01 20:57:00,37.0,16.6,29.12,SSE,158,2.7,2.7,43,0.00,,,0.00,VWS V14.01,2014-01-02 01:57:00,
2014-01-01 21:02:00,36.9,16.5,29.12,SSE,158,2.7,2.7,43,0.00,,,0.00,VWS V14.01,2014-01-02 02:02:00,
2014-01-01 21:07:00,36.9,17.5,29.12,SSE,158,2.7,2.7,45,0.00,,,0.00,VWS V14.01,2014-01-02 02:07:00,
2014-01-01 21:12:00,37.0,17.7,29.12,SSE,158,2.7,2.7,45,0.00,,,0.00,VWS V14.01,2014-01-02 02:12:00,
2014-01-01 21:17:00,36.9,18.0,29.12,SSE,158,2.7,2.7,46,0.00,,,0.00,VWS V14.01,2014-01-02 02:17:00,
2014-01-01 21:22:00,36.7,17.9,29.12,SSE,158,2.7,2.7,46,0.00,,,0.00,VWS V14.01,2014-01-02 02:22:00,
2014-01-01 21:27:00,36.5,18.2,29.12,SSE,158,2.7,2.7,47,0.00,,,0.00,VWS V14.01,2014-01-02 02:27:00,
2014-01-01 21:32:00,36.3,18.5,29.12,SSE,158,2.7,2.7,48,0.00,,,0.00,VWS V14.01,2014-01-02 02:32:00,
2014-01-01 21:37:00,36.0,18.2,29.09,SSE,158,2.7,2.7,48,0.00,,,0.00,VWS V14.01,2014-01-02 02:37:00,
2014-01-01 21:42:00,36.0,18.7,29.09,SSE,158,2.7,2.7,49,0.00,,,0.00,VWS V14.01,2014-01-02 02:42:00,
2014-01-01 21:47:00,35.8,18.5,29.09,SSE,158,2.7,2.7,49,0.00,,,0.00,VWS V14.01,2014-01-02 02:47:00,
2014-01-01 21:52:00,35.6,18.3,29.12,SSE,158,2.7,2.7,49,0.00,,,0.00,VWS V14.01,2014-01-02 02:52:00,
2014-01-01 21:57:00,35.1,18.3,29.12,SSE,158,2.7,2.7,50,0.00,,,0.00,VWS V14.01,2014-01-02 02:57:00,
2014-01-01 22:02:00,34.9,18.1,29.12,SSE,158,2.7,2.7,50,0.00,,,0.00,VWS V14.01,2014-01-02 03:02:00,
2014-01-01 22:07:00,34.5,17.8,29.09,SSE,158,2.7,2.7,50,0.00,,,0.00,VWS V14.01,2014-01-02 03:07:00,
2014-01-01 22:12:00,34.7,18.0,29.09,SSE,158,2.7,2.7,50,0.00,,,0.00,VWS V14.01,2014-01-02 03:12:00,
2014-01-01 22:17:00,34.9,18.1,29.09,SSE,158,2.7,2.7,50,0.00,,,0.00,VWS V14.01,2014-01-02 03:17:00,
2014-01-01 22:22:00,34.7,18.4,29.09,SSE,158,2.7,2.7,51,0.00,,,0.00,VWS V14.01,2014-01-02 03:22:00,
2014-01-01 22:27:00,34.5,18.3,29.09,SSE,158,2.7,2.7,51,0.00,,,0.00,VWS V14.01,2014-01-02 03:27:00,
2014-01-01 22:32:00,34.3,18.1,29.09,SSE,158,2.7,2.7,51,0.00,,,0.00,VWS V14.01,2014-01-02 03:32:00,
2014-01-01 22:37:00,34.5,18.3,29.09,SSE,158,2.7,2.7,51,0.00,,,0.00,VWS V14.01,2014-01-02 03:37:00,
2014-01-01 22:42:00,34.2,17.9,29.09,SSE,158,2.7,2.7,51,0.00,,,0.00,VWS V14.01,2014-01-02 03:42:00,
2014-01-01 22:47:00,34.0,17.8,29.09,SSE,158,2.7,2.7,51,0.00,,,0.00,VWS V14.01,2014-01-02 03:47:00,
2014-01-01 22:52:00,34.0,17.8,29.09,SSE,158,2.7,2.7,51,0.00,,,0.00,VWS V14.01,2014-01-02 03:52:00,
2014-01-01 22:57:00,33.8,17.6,29.09,SSE,158,2.7,2.7,51,0.00,,,0.00,VWS V14.01,2014-01-02 03:57:00,
2014-01-01 23:02:00,33.8,17.6,29.09,SSE,158,2.7,2.7,51,0.00,,,0.00,VWS V14.01,2014-01-02 04:02:00,
2014-01-01 23:07:00,33.4,17.3,29.09,SSE,158,2.7,2.7,51,0.00,,,0.00,VWS V14.01,2014-01-02 04:07:00,
2014-01-01 23:12:00,33.8,17.6,29.09,SSE,158,2.7,2.7,51,0.00,,,0.00,VWS V14.01,2014-01-02 04:12:00,
2014-01-01 23:17:00,33.6,17.4,29.09,SSE,158,2.7,2.7,51,0.00,,,0.00,VWS V14.01,2014-01-02 04:17:00,
2014-01-01 23:22:00,33.3,17.1,29.09,SSE,158,2.7,2.7,51,0.00,,,0.00,VWS V14.01,2014-01-02 04:22:00,
2014-01-01 23:27:00,33.3,17.1,29.09,SSE,158,2.7,2.7,51,0.00,,,0.00,VWS V14.01,2014-01-02 04:27:00,
2014-01-01 23:32:00,33.1,16.9,29.09,SSE,158,2.7,2.7,51,0.00,,,0.00,VWS V14.01,2014-01-02 04:32:00,
2014-01-01 23:37:00,32.9,16.8,29.09,SSE,158,2.7,2.7,51,0.00,,,0.00,VWS V14.01,2014-01-02 04:37:00,
2014-01-01 23:42:00,32.7,16.6,29.09,SSE,158,2.7,2.7,51,0.00,,,0.00,VWS V14.01,2014-01-02 04:42:00,
2014-01-01 23:47:00,32.7,16.6,29.09,SSE,158,2.7,2.7,51,0.00,,,0.00,VWS V14.01,2014-01-02 04:47:00,
2014-01-01 23:52:00,32.7,16.6,29.09,SSE,158,2.7,2.7,51,0.00,,,0.00,VWS V14.01,2014-01-02 04:52:00,
2014-01-01 23:57:00,32.7,16.6,29.06,SSE,158,2.7,2.7,51,0.00,,,0.00,VWS V14.01,2014-01-02 04:57:00,